MEASAT 3D

Last updated on Thu Aug 13 2026 00:03:02 GMT+0000 (Coordinated Universal Time)

1 52904U 22067B 26224.51888124 .00000000 00000+0 00000+0 0 9998 2 52904 0.0201 332.7114 0000298 276.2752 350.3066 1.00268908 15212
UTC large
Height (km)
Speed (km/s)
/
Latitude / Longitude
Inclination (degrees)
Orbital Period (minutes)
Azimuth
Elevation
Range (km)
Doppler Factor

Next 0 passes for location: London (51.5072 / 0.1276)

No passes found over London.
MEASAT 3D